Location: *
(44.1392°N, 4.8079°E)
Time: 08:49:28
(UTC+00:00)

SeaSat 1 - Pass Details

Date: 21 June 2021
Orbit: 745 x 746 km, 108.0° (Epoch: 02 August)

Event Time Altitude Azimuth Distance (km) Brightness Sun altitude
Rises 01:47:36 0° 39° (NE) 3,197 7.4 -16.6°
Reaches altitude 10° 01:50:18 10° 53° (NE) 2,268 6.0 -16.4°
Maximum altitude 01:54:14 24° 107° (ESE) 1,523 4.2 -16.0°
Drops below altitude 10° 01:58:10 10° 160° (SSE) 2,255 4.6 -15.6°
Enters shadow 01:58:12 10° 160° (SSE) 2,267 4.6 -15.6°
